Location: Poughquag
(41.6090°N, 73.6820°W)
Time: 02:44:36
(UTC-04:00)

Transit 4A - Pass Details

Date: 31 May 2020
Orbit: 866 x 978 km, 66.8° (Epoch: 06 July)

Event Time Altitude Azimuth Distance (km) Brightness Sun altitude
Rises 10:31:49 0° 334° (NNW) 3,561 10.7 54.6°
Reaches altitude 10° 10:34:26 10° 340° (NNW) 2,633 10.1 55.1°
Maximum altitude 10:40:19 46° 53° (NE) 1,250 9.6 56.1°
Drops below altitude 10° 10:46:20 10° 126° (SE) 2,690 11.0 57.1°
Sets 10:49:01 0° 132° (SE) 3,644 11.5 57.6°
